This is the latest recevied weather packets stored in our database for station/object KQ7A. If no packets are shown the sender has not sent any weather packets the latest 10 day(s).
| Time | Temp. | Humidity | Pressure | Rain* | Wind** | Luminosity | Snow |
|---|---|---|---|---|---|---|---|
| 1788426875 | 13.89° C | 34% | 1017.7 hPa | 0 mm | - | 0 W/m² | - |
| 1788426570 | 13.89° C | 34% | 1018.1 hPa | 0 mm | - | 0 W/m² | - |
| 1788426266 | 13.89° C | 32% | 1018.2 hPa | 0 mm | - | 0 W/m² | - |
| 1788425964 | 14.44° C | 31% | 1017.7 hPa | 0 mm | - | 0 W/m² | - |
| 1788425663 | 13.33° C | 33% | 1017.9 hPa | 0 mm | - | 0 W/m² | - |
| 1788425363 | 13.33° C | 34% | 1018.1 hPa | 0 mm | - | 0 W/m² | - |
| 1788425061 | 13.89° C | 33% | 1018.1 hPa | 0 mm | - | 0 W/m² | - |
| 1788424757 | 13.89° C | 33% | 1017.7 hPa | 0 mm | - | 0 W/m² | - |
| 1788424453 | 13.89° C | 33% | 1017.8 hPa | 0 mm | - | 0 W/m² | - |
| 1788424151 | 13.89° C | 33% | 1017.9 hPa | 0 mm | - | 0 W/m² | - |
| 1788423847 | 14.44° C | 33% | 1017.9 hPa | 0 mm | - | 0 W/m² | - |
| 1788423542 | 14.44° C | 33% | 1017.9 hPa | 0 mm | - | 0 W/m² | - |
| 1788423236 | 13.89° C | 34% | 1017.9 hPa | 0 mm | - | 0 W/m² | - |
| 1788422933 | 13.89° C | 35% | 1018.1 hPa | 0 mm | - | 0 W/m² | - |
| 1788422630 | 13.89° C | 34% | 1017.9 hPa | 0 mm | - | 0 W/m² | - |
| 1788422329 | 13.89° C | 35% | 1017.9 hPa | 0 mm | - | 0 W/m² | - |
| 1788422025 | 13.33° C | 35% | 1017.8 hPa | 0 mm | - | 0 W/m² | - |
| 1788421718 | 13.89° C | 36% | 1017.9 hPa | 0 mm | - | 0 W/m² | - |
| 1788421413 | 14.44° C | 35% | 1017.9 hPa | 0 mm | - | 0 W/m² | - |
| 1788421109 | 15° C | 34% | 1017.9 hPa | 0 mm | - | 0 W/m² | - |
| 1788420804 | 14.44° C | 35% | 1018.1 hPa | 0 mm | - | 0 W/m² | - |
| 1788420500 | 14.44° C | 36% | 1018.1 hPa | 0 mm | - | 0 W/m² | - |
| 1788420196 | 14.44° C | 37% | 1018.1 hPa | 0 mm | - | 0 W/m² | - |
| 1788419913 | 15° C | 36% | 1018.3 hPa | 0 mm | - | 0 W/m² | - |
| 1788419588 | 15° C | 36% | 1017.8 hPa | 0 mm | - | 0 W/m² | - |
* Rain latest hour (hover to see other rain measurements)
** Current wind speed in m/s (hover to see current wind gust speed)